[[[{"header":{"parameterUnit":"kt","parameterCategory":2,"dx":1,"dy":1,"la1":30.253999710083008,"la2":30.299108505249023,"lo1":-89.0895004272461,"lo2":-89.04439544677734,"nx":28,"ny":28,"refTime":"2022-10-19T09:00:00:Z","depth":0,"parameterNumber":1,"parameterNumberName":"U-component_of_WINDS"},"data":[-2.6053,-2.6134,-2.6152,-2.6251,-2.6284,-2.6354,-2.6385,-2.6425,-2.6462,-2.6546,-2.6597,-2.6623,-2.6665,-2.6729,-2.6784,-2.6793,-2.6814,-2.6828,-2.6836,-2.6759,-2.6749,-2.674,-2.6721,-2.6833,-2.6833,-2.6912,-2.6913,-2.6913,-2.5986,-2.602,-2.608,-2.6149,-2.6199,-2.6195,-2.6249,-2.629,-2.6353,-2.6401,-2.6453,-2.6529,-2.659,-2.663,-2.6691,-2.6726,-2.6727,-2.6741,-2.6737,-2.6743,-2.6662,-2.6642,-2.6739,-2.6739,-2.6739,-2.6739,-2.6739,-2.6739,-2.587,-2.5919,-2.5973,-2.6038,-2.6078,-2.6124,-2.6173,-2.6204,-2.6262,-2.6331,-2.6342,-2.6414,-2.6463,-2.6548,-2.6581,-2.6635,-2.6622,-2.6643,-2.6647,-2.6651,-2.6651,-2.6526,-2.6647,-2.6647,-2.6647,-2.6646,-2.6646,0,-2.579,-2.5802,-2.5862,-2.5926,-2.5975,-2.6027,-2.6078,-2.6109,-2.6141,-2.6187,-2.6256,-2.6298,-2.6381,-2.6445,-2.6508,-2.6539,-2.6538,-2.6542,-2.6555,-2.6548,-2.6532,-2.6536,-2.6399,-2.6538,-2.6537,-2.6536,-2.6536,-2.6536,-2.567,-2.5728,-2.5794,-2.5833,-2.5867,-2.593,-2.5971,-2.5996,-2.6039,-2.6104,-2.6146,-2.6213,-2.6267,-2.6373,-2.6409,-2.6471,-2.647,-2.652,-2.648,-2.647,-2.6465,-2.646,-2.6463,-2.6527,-2.6528,-2.6529,-2.6529,0,-2.5599,-2.5632,-2.5727,-2.5788,-2.5805,-2.5863,-2.5914,-2.5965,-2.5992,-2.6064,-2.6082,-2.6123,-2.619,-2.6219,-2.6302,-2.6314,-2.6402,-2.6403,-2.6383,-2.6383,-2.6427,-2.6421,-2.6576,-2.6595,-2.6484,-2.6485,-2.6486,0,-2.5508,-2.5584,-2.5626,-2.568,-2.5763,-2.5788,-2.5869,-2.59,-2.5946,-2.6004,-2.601,-2.6064,-2.6093,-2.615,-2.6169,-2.6247,-2.6265,-2.6277,-2.628,-2.6274,-2.6272,-2.6294,-2.6287,-2.6292,-2.6292,-2.6291,-2.629,0,-2.5391,-2.5506,-2.5594,-2.5625,-2.5699,-2.574,-2.5772,-2.5826,-2.5867,-2.5925,-2.5951,-2.6017,-2.6052,-2.6102,-2.6125,-2.6096,-2.6224,-2.6189,-2.6236,-2.6235,-2.6261,-2.6258,-2.6391,-2.6289,-2.6289,-2.6289,-2.6288,0,-2.5322,-2.5383,-2.5509,-2.5569,-2.5598,-2.5658,-2.5724,-2.5782,-2.5838,-2.5854,-2.5901,-2.5908,-2.5984,-2.5945,-2.6047,-2.6002,-2.6035,-2.6056,-2.606,-2.6065,-2.602,-2.6086,-2.6213,-2.6225,-2.6072,-2.6071,-2.6069,0,-2.5176,-2.5314,-2.5336,-2.5456,-2.5523,-2.5525,-2.5591,-2.5642,-2.5669,-2.5728,-2.5758,-2.5827,-2.5805,-2.583,-2.5878,-2.591,-2.597,-2.5904,-2.5982,-2.5985,-2.5963,-2.6082,-2.6091,-2.6183,-2.6047,-2.6049,-2.6051,0,-2.5067,-2.5161,-2.5181,-2.5216,-2.5291,-2.5348,-2.5425,-2.5499,-2.5537,-2.5596,-2.5658,-2.5758,-2.5744,-2.5787,-2.5801,-2.5849,-2.593,-2.5827,-2.5829,-2.584,-2.604,-2.6048,-2.6063,-2.5928,-2.5931,-2.5933,-2.6033,0,-2.4945,-2.5021,-2.5079,-2.5162,-2.5212,-2.5291,-2.5325,-2.5372,-2.538,-2.5408,-2.5504,-2.5556,-2.5632,-2.566,-2.567,-2.5772,-2.5758,-2.5744,-2.5706,-2.5786,-2.5819,-2.5833,-2.5654,-2.5653,-2.5652,-2.5652,0,0,-2.4795,-2.4906,-2.4931,-2.5008,-2.5051,-2.5054,-2.5135,-2.5177,-2.5264,-2.5293,-2.5273,-2.5421,-2.5465,-2.5576,-2.5604,-2.5637,-2.5656,-2.5629,-2.5749,-2.576,-2.577,-2.5805,-2.5819,-2.565,-2.565,-2.565,-2.565,0,-2.4758,-2.4807,-2.4889,-2.4934,-2.5003,-2.503,-2.5049,-2.5118,-2.514,-2.5237,-2.5236,-2.5298,-2.5419,-2.5462,-2.5501,-2.5617,-2.5611,-2.5638,-2.5687,-2.5741,-2.5752,-2.5763,-2.5799,-2.5813,-2.5648,-2.5648,-2.5648,0,-2.4654,-2.4705,-2.475,-2.4853,-2.4899,-2.497,-2.4939,-2.5018,-2.507,-2.507,-2.5165,-2.5199,-2.5263,-2.5368,-2.5416,-2.5399,-2.5568,-2.5524,-2.5529,-2.5534,-2.5588,-2.5602,-2.5614,-2.5448,-2.5447,-2.5446,0,0,-2.4616,-2.4689,-2.4753,-2.4848,-2.4876,-2.4919,-2.4962,-2.4975,-2.5034,-2.5058,-2.5102,-2.5158,-2.5227,-2.5272,-2.534,-2.5451,-2.5464,-2.5497,-2.5507,-2.5515,-2.5524,-2.5579,-2.5593,-2.5443,-2.5443,-2.5443,0,0,-2.4598,-2.4676,-2.4675,-2.4791,-2.4847,-2.4916,-2.4972,-2.4971,-2.5036,-2.5031,-2.5057,-2.5073,-2.5172,-2.5206,-2.5159,-2.5326,-2.5289,-2.5301,-2.53,-2.5313,-2.5322,-2.531,-2.5134,0,0,0,0,0,-2.4578,-2.4666,-2.4664,-2.4689,-2.4821,-2.4917,-2.4934,-2.4958,-2.4929,-2.4972,-2.5009,-2.5003,-2.5185,-2.5144,-2.5167,-2.5219,-2.5402,-2.5409,-2.5416,-2.5441,-2.5454,-2.5464,0,0,0,0,0,0,-2.4588,-2.4618,-2.4662,-2.4735,-2.4765,-2.4914,-2.4871,-2.488,-2.4925,-2.4923,-2.4996,-2.5005,-2.5026,-2.5134,-2.5154,-2.5203,-2.5127,-2.5405,-2.5411,-2.5417,-2.5446,-2.5456,-2.5465,0,0,0,0,0,-2.4596,-2.462,-2.4826,-2.4734,-2.476,-2.4812,-2.4868,-2.4875,-2.4911,-2.4968,-2.4977,-2.4925,-2.5027,-2.5046,-2.5146,-2.5192,-2.5113,-2.5121,-2.5409,-2.5414,-2.5418,-2.5451,0,0,0,0,0,0,-2.4602,-2.4627,-2.4832,-2.4841,-2.4703,-2.4804,-2.4821,-2.4871,-2.4954,-2.4964,-2.4898,-2.4895,-2.5029,-2.5043,-2.5058,-2.5188,-2.5102,-2.5109,-2.5114,-2.5413,-2.5417,-2.542,0,0,0,0,0,0,-2.4614,-2.4634,-2.4836,-2.4796,-2.48,-2.4797,-2.4812,-2.4901,-2.4955,-2.4879,-2.4879,-2.4896,-2.5006,-2.5042,-2.5053,-2.5192,-2.5093,-2.51,-2.5105,-2.5109,-2.5416,-2.5419,0,0,0,0,0,0,-2.4623,-2.464,-2.4794,-2.4797,-2.4801,-2.49,-2.4876,-2.501,-2.4921,-2.4875,-2.4914,-2.491,-2.5005,-2.5017,-2.505,-2.5183,-2.5189,-2.5093,-2.5098,-2.5102,-2.5104,0,0,0,0,0,0,0,-2.463,-2.4508,-2.478,-2.4798,-2.4801,-2.4921,-2.4923,-2.4926,-2.492,-2.4917,-2.4914,-2.4912,-2.505,-2.5058,-2.5067,-2.5177,0,0,-2.5092,-2.5096,0,0,0,0,0,0,0,0,-2.4501,-2.4506,-2.4781,-2.4782,-2.4784,-2.4921,-2.4923,-2.4925,-2.492,-2.4917,-2.4915,-2.4913,-2.5053,-2.5059,-2.5066,0,0,0,0,0,0,0,0,0,0,0,0,0,0,0,-2.4781,-2.4782,0,-2.4922,-2.4923,-2.4925,-2.4919,-2.4917,-2.4916,-2.4914,-2.5054,-2.506,-2.5065,0,0,0,0,0,0,0,0,0,0,0,0,0,0,0,0,0,0,0,0,0,0,0,0,0,0,0,0,0,0,0,0,0,0,0,0,0,0,0,0,0,0,0,0,0,0,0,0,0,0,0,0,0,0,0,0,0,0,0,0,0,0,0,0,0,0,0,0,0]}],[{"header":{"parameterUnit":"kt","parameterCategory":2,"dx":1,"dy":1,"la1":30.253999710083008,"la2":30.299108505249023,"lo1":-89.0895004272461,"lo2":-89.04439544677734,"nx":28,"ny":28,"refTime":"2022-10-19T09:00:00:Z","depth":0,"parameterNumber":2,"parameterNumberName":"V-component_of_WINDS"},"data":[-6.3185,-6.3277,-6.3275,-6.3378,-6.3394,-6.3463,-6.3487,-6.3517,-6.354,-6.3621,-6.3666,-6.3673,-6.3693,-6.3746,-6.3793,-6.3795,-6.3813,-6.3847,-6.3842,-6.3697,-6.3676,-6.3657,-6.3634,-6.3852,-6.3853,-6.3991,-6.3992,-6.3993,-6.3074,-6.3091,-6.3146,-6.3198,-6.3244,-6.321,-6.3247,-6.3287,-6.335,-6.338,-6.3426,-6.3496,-6.3551,-6.3561,-6.3613,-6.3653,-6.3639,-6.3667,-6.3662,-6.3665,-6.351,-6.3487,-6.3677,-6.3677,-6.3677,-6.3677,-6.3677,-6.3677,-6.2871,-6.2927,-6.2957,-6.3017,-6.3043,-6.3077,-6.3129,-6.3136,-6.3189,-6.3245,-6.3232,-6.3303,-6.3331,-6.3393,-6.3412,-6.3465,-6.3433,-6.3463,-6.3469,-6.3476,-6.3482,-6.3276,-6.3475,-6.3474,-6.3474,-6.3473,-6.3473,0,-6.272,-6.2715,-6.2769,-6.2821,-6.2865,-6.2905,-6.2942,-6.2974,-6.2961,-6.3006,-6.3069,-6.3105,-6.3175,-6.3232,-6.3281,-6.3295,-6.3262,-6.326,-6.3279,-6.3284,-6.3281,-6.3279,-6.3024,-6.3253,-6.3251,-6.325,-6.3249,-6.3248,-6.2512,-6.258,-6.2611,-6.2649,-6.2669,-6.273,-6.2766,-6.275,-6.2788,-6.2829,-6.2879,-6.2938,-6.2984,-6.3085,-6.3091,-6.3143,-6.3126,-6.3213,-6.3134,-6.3136,-6.3123,-6.3117,-6.3122,-6.3228,-6.3231,-6.3233,-6.3234,0,-6.2393,-6.2391,-6.2495,-6.252,-6.2528,-6.2599,-6.2619,-6.2674,-6.2675,-6.2751,-6.2768,-6.2769,-6.2831,-6.2823,-6.2893,-6.2886,-6.2997,-6.2982,-6.2985,-6.298,-6.3055,-6.3046,-6.3305,-6.3336,-6.3114,-6.3116,-6.3118,0,-6.2212,-6.2302,-6.2292,-6.2353,-6.2451,-6.2433,-6.253,-6.254,-6.2566,-6.2626,-6.2589,-6.2645,-6.2626,-6.2681,-6.2672,-6.2762,-6.2776,-6.2775,-6.277,-6.2776,-6.2776,-6.2793,-6.278,-6.2764,-6.2762,-6.2761,-6.276,0,-6.2024,-6.2127,-6.2226,-6.2248,-6.2284,-6.233,-6.2347,-6.2376,-6.2412,-6.2457,-6.2478,-6.2532,-6.2561,-6.2602,-6.2589,-6.2535,-6.27,-6.2623,-6.2698,-6.2698,-6.2733,-6.273,-6.2964,-6.2758,-6.2758,-6.2758,-6.2757,0,-6.1876,-6.1925,-6.2071,-6.2098,-6.2126,-6.2192,-6.2243,-6.2298,-6.2331,-6.233,-6.2365,-6.2338,-6.242,-6.2343,-6.2453,-6.2385,-6.2414,-6.2422,-6.2427,-6.243,-6.2344,-6.2472,-6.2699,-6.272,-6.2437,-6.2435,-6.2432,0,-6.166,-6.1808,-6.1793,-6.1932,-6.1999,-6.1951,-6.2024,-6.2056,-6.206,-6.2115,-6.2119,-6.2183,-6.2125,-6.2143,-6.2199,-6.2205,-6.2293,-6.2194,-6.2268,-6.2271,-6.2256,-6.2467,-6.25,-6.2651,-6.2398,-6.2402,-6.2404,0,-6.1491,-6.1536,-6.1563,-6.1586,-6.1627,-6.1684,-6.1768,-6.1828,-6.1865,-6.1907,-6.1974,-6.2066,-6.2024,-6.2056,-6.204,-6.2099,-6.2233,-6.2046,-6.2046,-6.2076,-6.2382,-6.2413,-6.2439,-6.2209,-6.2213,-6.2216,-6.2377,0,-6.126,-6.1336,-6.1408,-6.1465,-6.1508,-6.1597,-6.159,-6.1635,-6.1615,-6.1618,-6.172,-6.1745,-6.1805,-6.1834,-6.1816,-6.1955,-6.1929,-6.1885,-6.1806,-6.1946,-6.1998,-6.202,-6.1729,-6.1726,-6.1725,-6.1723,0,0,-6.1051,-6.1159,-6.1142,-6.1224,-6.1259,-6.1209,-6.1303,-6.1331,-6.1389,-6.1413,-6.1371,-6.1503,-6.1526,-6.1649,-6.1692,-6.1719,-6.1741,-6.1694,-6.1881,-6.1898,-6.1915,-6.1971,-6.1994,-6.1719,-6.1719,-6.1718,-6.1717,0,-6.0965,-6.0993,-6.1089,-6.1117,-6.1159,-6.1158,-6.1181,-6.1213,-6.1219,-6.1321,-6.1276,-6.1336,-6.1445,-6.1473,-6.1501,-6.1679,-6.1641,-6.1699,-6.1795,-6.1861,-6.1882,-6.19,-6.1959,-6.1981,-6.1713,-6.1713,-6.1713,0,-6.0794,-6.0819,-6.0866,-6.0946,-6.0972,-6.1044,-6.0961,-6.1041,-6.1093,-6.1033,-6.1134,-6.1147,-6.1185,-6.1305,-6.1359,-6.1321,-6.1549,-6.1478,-6.149,-6.1495,-6.1558,-6.1582,-6.1604,-6.1317,-6.1316,-6.1315,0,0,-6.072,-6.0792,-6.0813,-6.0927,-6.0947,-6.0947,-6.0985,-6.0969,-6.1006,-6.1021,-6.1037,-6.1073,-6.1134,-6.1176,-6.1234,-6.1368,-6.1372,-6.1429,-6.1448,-6.1463,-6.1476,-6.1544,-6.1568,-6.1309,-6.1309,-6.1309,0,0,-6.0684,-6.0714,-6.0688,-6.082,-6.0857,-6.0884,-6.0953,-6.0922,-6.0974,-6.0963,-6.0939,-6.0948,-6.106,-6.1075,-6.1008,-6.1205,-6.1129,-6.1145,-6.1191,-6.1215,-6.1233,-6.1226,-6.0925,0,0,0,0,0,-6.0593,-6.071,-6.0687,-6.0708,-6.0809,-6.0898,-6.091,-6.0894,-6.084,-6.0894,-6.0902,-6.086,-6.1033,-6.0973,-6.0993,-6.1068,-6.1244,-6.1255,-6.1266,-6.1357,-6.1382,-6.1403,0,0,0,0,0,0,-6.0601,-6.0627,-6.0683,-6.0716,-6.0739,-6.0893,-6.0797,-6.0796,-6.0833,-6.0824,-6.086,-6.0861,-6.0848,-6.0961,-6.098,-6.1051,-6.0918,-6.1248,-6.1258,-6.1267,-6.1366,-6.1386,-6.1403,0,0,0,0,0,-6.0608,-6.0629,-6.0796,-6.0714,-6.0734,-6.0741,-6.0792,-6.0791,-6.0819,-6.0832,-6.0832,-6.0804,-6.0851,-6.0865,-6.0972,-6.1043,-6.0905,-6.0912,-6.1255,-6.1262,-6.1269,-6.1376,0,0,0,0,0,0,-6.0612,-6.0627,-6.0799,-6.0805,-6.0669,-6.0732,-6.0741,-6.0786,-6.0825,-6.0826,-6.0775,-6.0767,-6.0854,-6.0864,-6.0876,-6.1041,-6.0894,-6.0902,-6.0906,-6.1261,-6.1267,-6.1272,0,0,0,0,0,0,-6.0615,-6.0632,-6.0802,-6.0746,-6.0745,-6.0723,-6.0732,-6.0821,-6.0826,-6.0765,-6.0759,-6.0771,-6.0836,-6.0865,-6.0873,-6.1013,-6.0886,-6.0893,-6.0898,-6.0901,-6.1266,-6.127,0,0,0,0,0,0,-6.0622,-6.0636,-6.0745,-6.0744,-6.0742,-6.08,-6.0801,-6.0906,-6.078,-6.0764,-6.0768,-6.0762,-6.0838,-6.0846,-6.0872,-6.1009,-6.1012,-6.0886,-6.0891,-6.0894,-6.0897,0,0,0,0,0,0,0,-6.0627,-6.0538,-6.0768,-6.0742,-6.074,-6.0854,-6.0855,-6.0856,-6.0779,-6.0774,-6.0769,-6.0765,-6.0847,-6.0855,-6.0862,-6.1005,0,0,-6.0886,-6.0889,0,0,0,0,0,0,0,0,-6.0531,-6.0536,-6.0769,-6.077,-6.0771,-6.0854,-6.0855,-6.0856,-6.0778,-6.0774,-6.077,-6.0766,-6.0849,-6.0855,-6.0861,0,0,0,0,0,0,0,0,0,0,0,0,0,0,0,-6.0769,-6.077,0,-6.0854,-6.0855,-6.0856,-6.0777,-6.0774,-6.0771,-6.0768,-6.0851,-6.0856,-6.0861,0,0,0,0,0,0,0,0,0,0,0,0,0,0,0,0,0,0,0,0,0,0,0,0,0,0,0,0,0,0,0,0,0,0,0,0,0,0,0,0,0,0,0,0,0,0,0,0,0,0,0,0,0,0,0,0,0,0,0,0,0,0,0,0,0,0,0,0,0]}]]]